Regional Weather Roundup
Issued by NWS

Home | Current Version | Previous Version | Text Only | Print | Product List | Glossary On
Versions: 1 2 3 4 5 6 7 8 9 10 11 12 13 14 15 16 17 18 19 20 21 22 23 24 25 26 27 28 29 30 31 32 33 34 35 36 37 38 39 40 41 42 43 44 45 46 47 48 49 50
790
ASUS43 KTOP 261208
RWRKS

WEATHER ROUNDUP FOR KANSAS
NATIONAL WEATHER SERVICE GOODLAND KS
700 AM CDT MON SEP 26 2016

NOTE:  "FAIR" INDICATES FEW OR NO CLOUDS BELOW 12,000 FEET WITH NO
SIGNIFICANT WEATHER AND/OR OBSTRUCTIONS TO VISIBILITY.

KSZ001>006-013>018-027>032-041>047-261300-
NORTHWEST KANSAS

CITY           SKY/WX    TMP DP  RH WIND       PRES   REMARKS
GOODLAND       CLOUDY    40  32  73 W3        30.38S
6HR MIN TEMP:  39; 6HR MAX TEMP:  45;

HAYS           CLEAR     41  27  56 NW6       30.34S
HILL CITY      CLEAR     39  34  82 W5        30.36S HAZE
6HR MIN TEMP:  39; 6HR MAX TEMP:  45;

RUSSELL        CLEAR     42  38  85 W6        30.32F
6HR MIN TEMP:  41; 6HR MAX TEMP:  50;

$$

KSZ061>065-074>080-084>089-261300-
SOUTHWEST KANSAS

CITY           SKY/WX    TMP DP  RH WIND       PRES   REMARKS
DODGE CITY     CLEAR     40  33  76 W3        30.37R
6HR MIN TEMP:  39; 6HR MAX TEMP:  46;

ELKHART          N/A     45  30  55 W8          N/A
GARDEN CITY    CLEAR     40  32  73 N7        30.37R
6HR MIN TEMP:  40; 6HR MAX TEMP:  46;

GREAT BEND     CLEAR     43  30  61 NW7       30.34S
LIBERAL        CLEAR     41  30  65 NW6       30.38R
PRATT          CLEAR     41  36  82 NW5       30.34R
6HR MIN TEMP:  41; 6HR MAX TEMP:  48;

$$

KSZ066>073-081>083-090>101-261300-
SOUTHEAST KANSAS

CITY           SKY/WX    TMP DP  RH WIND       PRES   REMARKS
CHANUTE        CLEAR     51  47  86 NW3       30.25S
6HR MIN TEMP:  51; 6HR MAX TEMP:  62;

COFFEYVILLE    CLEAR     54  50  86 N8        30.25R
6HR MIN TEMP:  54; 6HR MAX TEMP:  62;

HUTCHINSON     CLEAR     46  41  82 NW3       30.31S
6HR MIN TEMP:  44; 6HR MAX TEMP:  55;

MEDICINE LODGE   N/A     46  41  82 CALM        N/A
NEWTON         CLEAR    N/A N/A N/A N6        30.31R
PARSONS        CLEAR     53  47  79 N5        30.26R
6HR MIN TEMP:  53; 6HR MAX TEMP:  61;

WICHITA INTL   PTCLDY    48  44  86 NW7       30.30R
6HR MIN TEMP:  48; 6HR MAX TEMP:  61;

WICHITA JABRA  CLEAR     47  43  86 N9        30.29R
6HR MIN TEMP:  47; 6HR MAX TEMP:  54;

WICHITA MCCONL CLEAR     50  43  76 N6        30.30R
WINFIELD       CLEAR     50  46  86 N6        30.30R
6HR MIN TEMP:  49; 6HR MAX TEMP:  58;

$$

KSZ007>012-019>026-033>040-048>060-102>105-261300-
NORTHEAST KANSAS

CITY           SKY/WX    TMP DP  RH WIND       PRES   REMARKS
CONCORDIA      CLEAR     44  39  82 W8        30.31R
6HR MIN TEMP:  44; 6HR MAX TEMP:  50;

EMPORIA        CLEAR     48  43  82 W6        30.28R
6HR MIN TEMP:  48; 6HR MAX TEMP:  55;

LAWRENCE       CLEAR     45  44  97 NW8       30.27R
6HR MIN TEMP:  45; 6HR MAX TEMP:  53;

MANHATTAN      CLEAR     44  42  93 CALM      30.29S
6HR MIN TEMP:  44; 6HR MAX TEMP:  53;

MARYSVILLE     CLEAR     41  39  93 CALM      30.29R
OLATHE IND     CLEAR     48  45  89 NW7       30.26R
6HR MIN TEMP:  48; 6HR MAX TEMP:  59;

OLATHE EXE     CLEAR     50  44  80 NW5       30.25R
6HR MIN TEMP:  50; 6HR MAX TEMP:  60;

SALINA         CLEAR     48  41  76 CALM      30.31S HAZE
6HR MIN TEMP:  44; 6HR MAX TEMP:  53;

TOPEKA BILLARD CLEAR     48  44  86 W3        30.27S FOG
6HR MIN TEMP:  48; 6HR MAX TEMP:  56;

TOPEKA FORBES  CLEAR     47  44  90 CALM      30.27S
6HR MIN TEMP:  47; 6HR MAX TEMP:  55;

$$




USA.gov is the U.S. government's official web portal to all federal, state and local government web resources and services.